User: anonymous   Login
Location: Caltech
(34.1382°N, 118.1253°W)
Time: 00:22:44
(UTC-08:00)
Language:

CZ-2C R/B - Orbit

View from above orbital plane
View from above orbital plane
View from above satellite
View from above satellite

Ground track
Ground track

The orbit data is extracted from the following two-line orbital elements,

1 36089U 09061B   15026.16554432  .00000215  00000-0  65319-4 0  5415
2 36089 098.0843 055.1827 0082045 212.6246 189.3261 14.49345014275234
Epoch (UTC): 26 January 2015 03:58:23
Eccentricity: 0.0082045
inclination: 98.0843°
perigee height: 669 km
apogee height: 786 km
right ascension of ascending node: 55.1827°
argument of perigee: 212.6246°
revolutions per day: 14.49345014
mean anomaly at epoch: 189.3261°
orbit number at epoch: 27523

The dashed part of the orbit path shows where the satellite is in the earth's shadow,  

DLR